Location: Pine Mountain Observatory
(43.7910°N, 120.9377°W)
Time: 07:54:11
(UTC-07:00)

Explorer 11/Cluster Stage 4 - Pass Details

Date: 30 May 2019
Orbit: 467 x 1260 km, 28.8° (Epoch: 26 June)

Event Time Altitude Azimuth Distance (km) Brightness Sun altitude
Rises 03:52:40 0° 248° (WSW) 3,741 - -13.6°
Reaches altitude 10° 03:56:33 10° 229° (SW) 2,618 - -13.1°
Exits shadow 03:59:19 16° 204° (SSW) 2,084 8.2 -12.8°
Maximum altitude 04:00:21 17° 192° (SSW) 1,996 8.1 -12.7°
Drops below altitude 10° 04:03:44 10° 153° (SSE) 2,264 8.7 -12.3°
Sets 04:06:45 0° 132° (SE) 3,028 9.6 -11.9°
